#timestamp,LO_Frequency,Hit,StdDev 
1567983615.6,286047001.5,N
1567983635.5,286047004.6,N
1567983655.3,286047006.2,N
1567983675.2,286047009.8,N
1567983695.9,286047011.2,N
1567983715.7,286047010.2,N
1567983735.6,286047008.2,N
1567983755.4,286047007.4,N
1567983775.2,286047007.2,N
1567983795.1,286047005.0,N
1567983796.0,286047005.0,N
1567983815.8,286047007.4,N
1567983835.7,286047004.9,N
1567983855.5,286047006.3,N
1567983875.3,286047005.9,N
1567983895.2,286047001.4,N
1567983915.9,286047002.6,N
1567983935.7,286047001.9,N
1567983955.6,286047004.2,N
1567983975.4,286047002.9,N
1567983995.2,286047006.4,N
1567984015.1,286047008.8,N
1567984016.0,286047008.8,N
1567984035.8,286047010.8,Y
1567984055.7,286047006.5,P
1567984075.5,286047009.5,P
1567984095.3,286047010.0,P
1567984115.2,286047013.4,Y
1567984135.0,286047005.1,P
1567984135.9,286047005.1,P
1567984155.8,286047003.1,N
1567984175.6,286047003.4,N
1567984195.4,286047006.0,Y
1567984215.3,286047000.0,P
1567984235.1,286046999.7,N
1567984255.8,286047002.5,N
1567984275.7,286047003.7,N
1567984295.5,286047004.1,N
1567984315.4,286047001.9,N
1567984335.2,286047000.8,N
1567984355.0,286047000.1,N
1567984355.9,286047000.1,N
1567984375.8,286047002.8,N
1567984395.6,286047002.6,N
1567984415.4,286047000.2,N
1567984435.3,286046998.6,N
1567984455.1,286046996.6,N
1567984475.9,286046997.4,N
1567984495.7,286046998.0,N
1567984515.5,286046995.7,N
1567984535.4,286046994.3,N
1567984555.2,286046993.6,N
1567984575.0,286046994.6,N
1567984575.9,286046994.6,N
1567984595.8,286046995.1,N
1567984615.6,286046997.5,N
1567984635.5,286047000.9,N
1567984655.3,286047000.2,N
1567984675.1,286047002.8,N
1567984695.9,286047001.7,N
1567984715.7,286047002.8,N
1567984735.5,286046999.7,N
1567984755.4,286047005.9,N
1567984775.2,286047003.2,N
1567984795.1,286047005.2,N
1567984796.0,286047005.2,N
1567984815.8,286047006.7,N
1567984835.6,286047003.3,N
1567984855.5,286047003.3,N
1567984875.3,286047006.7,N
1567984895.1,286047007.8,N
1567984915.9,286047010.3,N
1567984935.7,286047009.7,N
1567984955.6,286047010.8,N
1567984975.4,286047010.3,N
1567984995.2,286047005.3,N
1567985015.1,286047001.7,N
1567985016.0,286047001.7,N
1567985035.8,286047002.4,N
1567985055.6,286046998.8,N
1567985075.5,286046998.3,N
1567985095.3,286046997.3,N
1567985115.2,286046993.3,N
1567985135.0,286046996.4,N
1567985135.9,286046996.4,N
1567985155.7,286046994.7,N
1567985175.6,286046994.4,N
1567985195.4,286046992.5,N
1567985215.3,286046993.2,N
1567985235.1,286046992.5,N
1567985236.0,286046992.5,N
1567985255.8,286046996.0,N
1567985275.7,286046993.3,N
1567985295.5,286046993.4,N
1567985315.3,286046993.9,N
1567985335.2,286046991.8,N
1567985355.0,286046994.8,N
1567985355.9,286046994.8,N
1567985375.8,286046991.7,N
1567985395.6,286046994.2,N
1567985415.4,286046994.8,N
1567985435.3,286046990.1,N
1567985455.1,286046990.8,N
1567985475.9,286046989.6,N
1567985495.7,286046985.5,Y
1567985515.5,286046985.3,P
1567985535.4,286046984.5,N
1567985555.2,286046982.9,P
1567985575.0,286046983.3,Y
1567985575.9,286046983.3,P
1567985595.8,286046992.2,P
1567985615.6,286046991.5,N
1567985635.5,286046991.5,N
1567985655.3,286046991.6,N
1567985675.1,286046989.1,Y
1567985695.9,286046996.6,P
1567985715.7,286046997.5,N
1567985735.5,286046994.1,N
1567985755.4,286046990.1,Y
1567985775.2,286046996.3,P
1567985795.1,286046992.4,P
1567985796.0,286046992.4,P
1567985815.8,286046993.0,Y
1567985835.6,286046998.6,P
1567985855.5,286046996.9,N
1567985875.3,286046999.4,N
1567985895.2,286047002.5,N
1567985915.9,286047002.0,N
1567985935.7,286047001.7,N
1567985955.6,286047004.0,N
1567985975.4,286047003.3,N
1567985995.2,286047004.7,N
1567986015.1,286047005.3,N
1567986016.0,286047005.3,N
1567986035.8,286047004.3,N
1567986055.7,286047002.0,N
1567986075.5,286047000.1,N
1567986095.3,286047000.5,N
1567986115.2,286046999.6,N
1567986135.9,286046998.9,N
1567986155.7,286046996.7,N
1567986175.6,286046997.4,N
1567986195.4,286046997.8,N
1567986215.3,286046995.7,N
1567986235.1,286046993.4,N
1567986236.0,286046993.4,N
1567986255.8,286046996.0,N
1567986275.7,286046995.2,N
1567986295.5,286046996.1,N
1567986315.3,286046995.2,N
1567986335.2,286046999.4,N
1567986355.0,286047000.2,N
1567986355.9,286047000.2,N
1567986375.8,286047002.0,N
1567986395.6,286047002.8,N
1567986415.4,286047003.2,N
1567986435.3,286047004.8,N
1567986455.1,286047004.8,N
1567986475.8,286047005.3,N
1567986495.7,286047004.6,N
1567986515.5,286047006.8,N
1567986535.4,286047009.1,N
1567986555.2,286047006.6,N
1567986575.0,286047009.2,N
1567986575.9,286047009.2,N
1567986595.8,286047010.4,N
1567986615.6,286047007.7,N
1567986635.5,286047008.1,N
1567986655.3,286047010.6,N
1567986675.1,286047008.1,N
1567986695.9,286047006.7,N
1567986715.7,286047006.9,N
1567986735.5,286047006.9,N
1567986755.4,286047008.5,N
1567986775.2,286047008.2,N
1567986795.0,286047008.3,N
1567986796.0,286047008.3,N
1567986815.8,286047006.7,N
1567986835.6,286047011.9,Y
1567986855.5,286047006.8,P
1567986875.3,286047001.4,N
1567986895.1,286047001.0,N
1567986915.9,286046997.0,N
1567986935.7,286046994.9,N
1567986955.6,286046998.5,N
1567986975.4,286046996.5,N
1567986995.2,286046996.8,N
1567987015.1,286046997.9,N
1567987016.0,286046997.9,N
1567987035.8,286046999.3,N
1567987055.6,286046998.6,N
1567987075.5,286047002.1,N
1567987095.3,286047002.2,N
1567987115.1,286047000.5,N
1567987135.9,286046999.9,N
1567987155.7,286047000.3,N
1567987175.6,286047000.6,N
1567987195.4,286046999.8,N
